Tracking 29892 objects as of 21-Nov-2024
HD Live streaming from Space Station
objects crossing your sky now

SL-16 DEB

Track SL-16 DEB now!
10-day predictions


NORAD ID: 22359
Int'l Code: 1992-093AY
Perigee: 797.4 km
Apogee: 1,038.6 km
Inclination: 70.7 °
Period: 103.2 minutes
Semi major axis: 7289 km
RCS: 0.0507 m2 (small)
Launch date: December 25, 1992
Source: Commonwealth of Independent States (former USSR) (CIS)
Launch site: TYURATAM MISSILE AND SPACE COMPLEX (TTMTR)

Note: This is SATELLITE DEBRIS
Your satellite tracking list
Your tracking list is empty




NASA's NSSDC Master Catalog

Two Line Element Set (TLE):
1 22359U 92093AY  24325.65664432  .00004089  00000-0  27352-2 0  9998
2 22359  70.7425  51.3130 0165462 229.7203 287.0428 13.95083985611000
Source of the keplerian elements: AFSPC